contact:dominique.lefevre@mio.osupytheas.fr, maurice.libes@osupytheas.fr, didier.mallarino@osupytheas.fr
Project:EMSO http://www.emso-fr.org/EMSO-France
Depth: 2436.0 m
Title:EMSO Ligure Ouest : Data MII capteur AQUADOPP
Date,Latitude,Longitude,X_East,Y_North,Z_Up,Amplitude_X,Amplitude_Y,Amplitude_Z,Batterie,SoundSpeed,Heading,Pitch,Roll,Pressure,TIS,Speed,Direction
, degrees North, degrees East, m.s-1, m.s-1,m.s-1, 1, 1, 1, Volt, m.s-1, degree, degree, degree, dbar, degree_C, m.s-1, degree
2023-04-05T00:04:03,42.805,6.029,-0.003,-0.006,0.02,104.0,106.0,102.0,13.3,1505.2,333.9,-0.7,1.8,2471.279,13.29,0.006,206.6
2023-04-05T00:07:03,42.805,6.029,-0.009,-0.033,-0.021,106.0,104.0,104.0,13.3,1505.2,342.5,-0.8,1.8,2471.251,13.29,0.034,195.3
2023-04-05T00:10:03,42.805,6.029,-0.033,-0.02,-0.057,105.0,104.0,104.0,13.3,1505.2,317.6,-0.8,1.8,2471.237,13.29,0.038,238.8
2023-04-05T00:13:03,42.805,6.029,-0.027,-0.005,-0.007,106.0,104.0,103.0,13.3,1505.2,327.6,-0.8,1.8,2471.277,13.29,0.027,259.5
2023-04-05T00:16:03,42.805,6.029,0.001,0.011,0.002,106.0,104.0,103.0,13.4,1505.2,343.4,-0.8,1.8,2471.23,13.29,0.011,5.2
2023-04-05T00:19:03,42.805,6.029,-0.032,0.0,-0.029,105.0,102.0,103.0,13.4,1505.2,331.6,-0.7,1.8,2471.219,13.29,0.032,270.0
2023-04-05T00:22:03,42.805,6.029,-0.015,-0.001,-0.039,104.0,104.0,103.0,13.4,1505.2,343.9,-0.8,1.8,2471.234,13.29,0.015,266.2
2023-04-05T00:25:03,42.805,6.029,0.002,-0.015,0.02,104.0,105.0,103.0,13.4,1505.2,327.1,-0.8,1.8,2471.204,13.29,0.015,172.4
2023-04-05T00:28:03,42.805,6.029,-0.034,-0.006,-0.046,106.0,104.0,102.0,13.4,1505.2,323.3,-0.8,1.8,2471.202,13.29,0.034,260.0
2023-04-05T00:31:03,42.805,6.029,-0.002,-0.027,-0.015,103.0,106.0,104.0,13.4,1505.2,345.2,-0.8,1.8,2471.231,13.29,0.027,184.2
2023-04-05T00:34:03,42.805,6.029,-0.014,-0.015,-0.017,104.0,104.0,103.0,13.4,1505.2,341.5,-0.8,1.8,2471.193,13.29,0.02,223.0
2023-04-05T00:37:03,42.805,6.029,0.012,-0.021,-0.051,105.0,105.0,103.0,13.4,1505.2,328.5,-0.7,1.8,2471.216,13.29,0.024,150.3
2023-04-05T00:40:03,42.805,6.029,-0.002,-0.002,-0.047,105.0,104.0,104.0,13.3,1505.2,330.2,-0.7,1.8,2471.203,13.29,0.002,225.0
2023-04-05T00:43:03,42.805,6.029,-0.023,0.003,-0.02,105.0,105.0,103.0,13.3,1505.2,331.1,-0.8,1.8,2471.24,13.29,0.023,277.4
2023-04-05T00:46:03,42.805,6.029,-0.03,0.002,0.001,105.0,102.0,104.0,13.4,1505.2,342.8,-0.7,1.8,2471.163,13.29,0.03,273.8
2023-04-05T00:49:03,42.805,6.029,-0.033,0.003,-0.021,104.0,104.0,103.0,13.3,1505.2,321.0,-0.8,1.8,2471.219,13.29,0.033,275.2
2023-04-05T00:52:03,42.805,6.029,-0.003,0.004,-0.001,104.0,106.0,105.0,13.4,1505.2,325.5,-0.8,1.8,2471.203,13.29,0.005,323.1
2023-04-05T00:55:03,42.805,6.029,-0.019,-0.007,-0.033,104.0,105.0,103.0,13.4,1505.2,331.0,-0.8,1.8,2471.187,13.29,0.02,249.8
2023-04-05T00:58:03,42.805,6.029,-0.03,-0.003,-0.01,106.0,103.0,102.0,13.4,1505.2,332.6,-0.8,1.8,2471.241,13.29,0.03,264.3
2023-04-05T01:04:03,42.805,6.029,0.009,-0.012,-0.023,107.0,107.0,104.0,13.3,1505.2,327.2,-0.8,1.8,2471.252,13.29,0.015,143.1
2023-04-05T01:07:03,42.805,6.029,-0.014,0.0,-0.017,106.0,105.0,106.0,13.4,1505.2,322.4,-0.7,1.8,2471.242,13.29,0.014,270.0
2023-04-05T01:10:03,42.805,6.029,-0.003,-0.015,-0.032,106.0,103.0,105.0,13.4,1505.2,336.2,-0.8,1.8,2471.23,13.29,0.015,191.3
2023-04-05T01:13:03,42.805,6.029,-0.014,-0.001,-0.035,104.0,104.0,103.0,13.4,1505.2,325.0,-0.8,1.8,2471.224,13.29,0.014,265.9
2023-04-05T01:16:03,42.805,6.029,-0.025,-0.007,-0.05,104.0,105.0,104.0,13.4,1505.2,342.2,-0.7,1.8,2471.236,13.29,0.025,254.4
2023-04-05T01:19:03,42.805,6.029,-0.009,-0.004,-0.037,105.0,106.0,102.0,13.4,1505.2,322.3,-0.8,1.8,2471.233,13.29,0.009,246.0
2023-04-05T01:22:03,42.805,6.029,-0.019,0.001,-0.032,106.0,104.0,103.0,13.3,1505.2,330.5,-0.8,1.8,2471.232,13.29,0.019,273.0
2023-04-05T01:25:03,42.805,6.029,-0.012,0.004,-0.028,105.0,105.0,103.0,13.4,1505.2,319.1,-0.7,1.8,2471.228,13.29,0.012,288.4
2023-04-05T01:28:03,42.805,6.029,-0.027,0.01,-0.036,105.0,104.0,104.0,13.4,1505.2,318.4,-0.8,1.8,2471.251,13.29,0.028,290.3
2023-04-05T01:31:03,42.805,6.029,-0.026,-0.007,-0.036,104.0,104.0,104.0,13.4,1505.2,329.7,-0.8,1.8,2471.219,13.29,0.026,254.9
2023-04-05T01:34:03,42.805,6.029,-0.005,-0.02,-0.059,107.0,104.0,103.0,13.4,1505.2,321.8,-0.7,1.8,2471.203,13.29,0.02,194.0
2023-04-05T01:37:03,42.805,6.029,-0.011,-0.002,-0.025,105.0,104.0,103.0,13.4,1505.2,328.3,-0.7,1.8,2471.192,13.29,0.011,259.7
2023-04-05T01:40:03,42.805,6.029,0.001,-0.007,-0.056,104.0,106.0,103.0,13.4,1505.2,331.4,-0.7,1.8,2471.217,13.29,0.007,171.9
2023-04-05T01:43:03,42.805,6.029,-0.011,0.002,-0.021,106.0,105.0,103.0,13.4,1505.2,317.5,-0.7,1.8,2471.166,13.29,0.011,280.3
2023-04-05T01:46:03,42.805,6.029,-0.014,-0.004,-0.029,104.0,105.0,103.0,13.3,1505.2,336.9,-0.8,1.8,2471.218,13.29,0.014,254.1
2023-04-05T01:49:03,42.805,6.029,-0.019,0.013,-0.033,104.0,105.0,103.0,13.3,1505.2,327.1,-0.8,1.8,2471.208,13.29,0.023,304.4
2023-04-05T01:52:03,42.805,6.029,-0.042,0.019,-0.026,104.0,105.0,103.0,13.4,1505.2,326.5,-0.8,1.9,2471.194,13.29,0.046,294.3
2023-04-05T01:55:03,42.805,6.029,0.0,0.032,-0.001,104.0,106.0,103.0,13.3,1505.2,339.4,-0.8,1.8,2471.222,13.29,0.032,0.0
2023-04-05T01:58:03,42.805,6.029,0.0,0.003,-0.004,105.0,103.0,105.0,13.4,1505.2,332.9,-0.7,1.8,2471.202,13.29,0.003,0.0
2023-04-05T02:04:03,42.805,6.029,-0.032,0.005,-0.043,105.0,105.0,102.0,13.3,1505.2,325.7,-0.8,1.8,2471.261,13.29,0.032,278.9
2023-04-05T02:07:03,42.805,6.029,-0.009,0.005,-0.039,104.0,104.0,103.0,13.3,1505.2,333.8,-0.8,1.8,2471.272,13.29,0.01,299.1
2023-04-05T02:10:03,42.805,6.029,-0.011,-0.008,-0.031,106.0,104.0,103.0,13.4,1505.2,335.9,-0.7,1.9,2471.241,13.29,0.013,234.0
2023-04-05T02:13:03,42.805,6.029,-0.029,0.017,-0.001,104.0,104.0,104.0,13.4,1505.2,340.4,-0.8,1.8,2471.223,13.29,0.033,300.4
2023-04-05T02:16:03,42.805,6.029,-0.006,0.023,0.01,104.0,104.0,105.0,13.4,1505.2,324.2,-0.8,1.8,2471.277,13.29,0.023,345.4
2023-04-05T02:19:03,42.805,6.029,-0.03,0.009,-0.015,104.0,104.0,103.0,13.3,1505.2,320.4,-0.8,1.8,2471.206,13.29,0.031,286.7
2023-04-05T02:22:03,42.805,6.029,-0.013,0.018,-0.034,105.0,104.0,104.0,13.4,1505.2,343.3,-0.8,1.9,2471.236,13.29,0.022,324.2
2023-04-05T02:25:03,42.805,6.029,-0.015,-0.003,-0.027,105.0,106.0,101.0,13.4,1505.2,325.1,-0.8,1.8,2471.26,13.29,0.015,258.7
2023-04-05T02:28:03,42.805,6.029,-0.008,-0.008,-0.052,104.0,104.0,104.0,13.4,1505.2,329.4,-0.7,1.9,2471.24,13.29,0.011,225.0
2023-04-05T02:31:03,42.805,6.029,-0.031,0.005,-0.006,105.0,104.0,104.0,13.4,1505.2,327.7,-0.7,1.8,2471.241,13.29,0.031,279.2
2023-04-05T02:34:03,42.805,6.029,-0.025,0.002,-0.001,105.0,105.0,102.0,13.4,1505.2,340.2,-0.8,1.8,2471.235,13.29,0.025,274.6
2023-04-05T02:37:03,42.805,6.029,-0.027,0.0,-0.028,108.0,106.0,104.0,13.4,1505.2,329.5,-0.8,1.8,2471.237,13.29,0.026,270.0
2023-04-05T02:40:03,42.805,6.029,-0.007,-0.003,-0.007,106.0,105.0,105.0,13.4,1505.2,327.0,-0.7,1.8,2471.204,13.29,0.007,246.8
2023-04-05T02:43:03,42.805,6.029,-0.016,0.014,0.024,105.0,106.0,103.0,13.4,1505.2,335.6,-0.8,1.9,2471.244,13.29,0.021,311.2
2023-04-05T02:46:03,42.805,6.029,0.0,0.035,0.011,106.0,103.0,102.0,13.4,1505.2,334.4,-0.8,1.8,2471.274,13.29,0.035,0.0
2023-04-05T02:49:03,42.805,6.029,-0.014,0.02,-0.029,106.0,104.0,103.0,13.4,1505.2,323.1,-0.8,1.7,2471.239,13.29,0.024,325.0
2023-04-05T02:52:03,42.805,6.029,-0.005,0.005,-0.031,106.0,105.0,103.0,13.4,1505.2,340.0,-0.8,1.8,2471.221,13.29,0.007,315.0
2023-04-05T02:55:03,42.805,6.029,-0.021,0.023,-0.015,104.0,104.0,103.0,13.4,1505.2,332.4,-0.8,1.8,2471.265,13.29,0.031,317.6
2023-04-05T02:58:03,42.805,6.029,-0.011,0.017,-0.011,105.0,105.0,102.0,13.4,1505.2,322.7,-0.8,1.8,2471.221,13.29,0.02,327.1
2023-04-05T03:04:03,42.805,6.029,-0.008,0.028,-0.021,105.0,104.0,105.0,13.4,1505.2,343.9,-0.7,1.8,2471.302,13.29,0.029,344.1
2023-04-05T03:07:03,42.805,6.029,-0.001,0.006,-0.006,107.0,105.0,106.0,13.3,1505.2,342.4,-0.8,1.8,2471.282,13.29,0.006,350.5
2023-04-05T03:10:03,42.805,6.029,-0.027,0.007,-0.038,106.0,105.0,104.0,13.4,1505.2,331.4,-0.8,1.8,2471.272,13.29,0.027,284.5
2023-04-05T03:13:03,42.805,6.029,-0.016,0.01,0.01,105.0,105.0,104.0,13.4,1505.2,320.4,-0.8,1.8,2471.277,13.29,0.018,302.0
2023-04-05T03:16:03,42.805,6.029,-0.028,0.015,-0.028,105.0,105.0,103.0,13.4,1505.2,327.9,-0.8,1.8,2471.286,13.29,0.031,298.2
2023-04-05T03:19:03,42.805,6.029,-0.01,0.008,0.003,106.0,104.0,103.0,13.3,1505.2,319.5,-0.7,1.8,2471.28,13.29,0.012,308.7
2023-04-05T03:22:03,42.805,6.029,-0.001,0.033,0.028,106.0,105.0,103.0,13.4,1505.2,338.2,-0.8,1.8,2471.279,13.29,0.033,358.3
2023-04-05T03:25:03,42.805,6.029,-0.001,0.001,-0.044,105.0,104.0,103.0,13.3,1505.2,320.3,-0.7,1.8,2471.28,13.29,0.001,315.0
2023-04-05T03:28:03,42.805,6.029,0.006,0.007,-0.001,106.0,105.0,103.0,13.3,1505.2,335.3,-0.8,1.8,2471.293,13.29,0.009,40.6
2023-04-05T03:31:03,42.805,6.029,-0.019,0.036,-0.039,105.0,103.0,103.0,13.3,1505.2,333.8,-0.8,1.8,2471.277,13.29,0.04,332.2
2023-04-05T03:34:03,42.805,6.029,-0.027,0.037,0.009,104.0,106.0,102.0,13.4,1505.2,325.4,-0.8,1.8,2471.291,13.29,0.045,323.9
2023-04-05T03:37:03,42.805,6.029,-0.015,0.023,0.002,106.0,105.0,103.0,13.4,1505.2,342.8,-0.7,1.8,2471.254,13.29,0.027,326.9
2023-04-05T03:40:03,42.805,6.029,-0.017,-0.019,-0.037,107.0,105.0,103.0,13.4,1505.2,320.8,-0.8,1.8,2471.308,13.29,0.025,221.8
2023-04-05T03:43:03,42.805,6.029,-0.031,0.029,0.018,105.0,105.0,104.0,13.3,1505.2,342.4,-0.7,1.8,2471.348,13.29,0.042,313.1
2023-04-05T03:46:03,42.805,6.029,-0.009,0.017,-0.036,107.0,105.0,103.0,13.4,1505.2,319.2,-0.8,1.8,2471.309,13.29,0.019,332.1
2023-04-05T03:49:03,42.805,6.029,0.005,0.007,-0.043,106.0,104.0,103.0,13.4,1505.2,337.8,-0.8,1.8,2471.268,13.29,0.008,35.5
2023-04-05T03:52:03,42.805,6.029,-0.014,0.02,0.003,106.0,104.0,103.0,13.4,1505.2,332.5,-0.8,1.8,2471.331,13.29,0.024,325.0
2023-04-05T03:55:03,42.805,6.029,-0.016,0.013,-0.014,106.0,105.0,103.0,13.4,1505.2,333.0,-0.7,1.8,2471.268,13.29,0.02,309.1
2023-04-05T03:58:03,42.805,6.029,0.0,0.024,-0.012,106.0,105.0,104.0,13.4,1505.2,317.2,-0.8,1.8,2471.318,13.29,0.024,0.0
2023-04-05T04:04:03,42.805,6.029,-0.012,0.035,-0.018,107.0,107.0,103.0,13.3,1505.2,344.7,-0.7,1.8,2471.337,13.29,0.037,341.1
2023-04-05T04:07:03,42.805,6.029,-0.034,0.017,-0.022,106.0,105.0,102.0,13.4,1505.2,324.6,-0.8,1.8,2471.367,13.29,0.038,296.6
2023-04-05T04:10:03,42.805,6.029,-0.018,0.016,-0.006,105.0,105.0,103.0,13.3,1505.2,319.7,-0.7,1.8,2471.35,13.29,0.024,311.6
2023-04-05T04:13:03,42.805,6.029,-0.017,0.019,-0.007,105.0,104.0,103.0,13.4,1505.2,326.3,-0.8,1.8,2471.347,13.29,0.025,318.2
2023-04-05T04:16:03,42.805,6.029,-0.006,0.014,-0.029,106.0,104.0,102.0,13.4,1505.2,340.4,-0.8,1.9,2471.364,13.29,0.015,336.8
2023-04-05T04:19:03,42.805,6.029,-0.029,0.019,-0.007,107.0,105.0,104.0,13.3,1505.2,336.9,-0.7,1.8,2471.371,13.29,0.034,303.2
2023-04-05T04:22:03,42.805,6.029,-0.015,0.023,-0.021,106.0,105.0,103.0,13.3,1505.2,335.0,-0.8,1.8,2471.347,13.29,0.027,326.9
2023-04-05T04:25:03,42.805,6.029,-0.008,0.004,-0.018,105.0,105.0,103.0,13.3,1505.2,321.4,-0.8,1.8,2471.301,13.29,0.008,296.6
2023-04-05T04:28:03,42.805,6.029,-0.012,0.015,-0.006,105.0,106.0,103.0,13.3,1505.2,322.4,-0.8,1.8,2471.309,13.29,0.019,321.3
2023-04-05T04:31:03,42.805,6.029,0.0,0.008,-0.012,106.0,106.0,104.0,13.4,1505.2,326.8,-0.8,1.8,2471.384,13.29,0.008,0.0
2023-04-05T04:34:03,42.805,6.029,-0.005,0.018,-0.037,105.0,105.0,104.0,13.4,1505.2,336.1,-0.8,1.8,2471.329,13.29,0.018,344.5
2023-04-05T04:37:03,42.805,6.029,-0.024,-0.001,-0.011,107.0,105.0,102.0,13.4,1505.2,342.2,-0.8,1.8,2471.338,13.29,0.024,267.6
2023-04-05T04:40:03,42.805,6.029,-0.008,0.016,-0.008,104.0,106.0,104.0,13.4,1505.2,330.5,-0.8,1.8,2471.352,13.29,0.017,333.4
2023-04-05T04:43:03,42.805,6.029,-0.017,0.026,-0.019,106.0,105.0,103.0,13.3,1505.2,331.9,-0.7,1.8,2471.375,13.29,0.031,326.8
2023-04-05T04:46:03,42.805,6.029,-0.007,0.017,-0.011,105.0,105.0,104.0,13.4,1505.2,334.6,-0.8,1.8,2471.373,13.29,0.018,337.6
2023-04-05T04:49:03,42.805,6.029,-0.011,0.017,0.028,104.0,106.0,103.0,13.4,1505.2,326.3,-0.8,1.9,2471.38,13.29,0.02,327.1
2023-04-05T04:52:03,42.805,6.029,-0.008,0.015,-0.017,106.0,106.0,103.0,13.4,1505.2,321.2,-0.8,1.8,2471.37,13.29,0.017,331.9
2023-04-05T04:55:03,42.805,6.029,-0.006,0.023,0.012,105.0,104.0,103.0,13.3,1505.2,344.4,-0.7,1.8,2471.375,13.29,0.023,345.4
2023-04-05T04:58:03,42.805,6.029,-0.002,0.01,-0.016,108.0,106.0,103.0,13.3,1505.2,336.2,-0.8,1.8,2471.356,13.29,0.01,348.7
2023-04-05T05:04:03,42.805,6.029,-0.003,0.022,-0.014,105.0,106.0,103.0,13.3,1505.2,333.0,-0.8,1.8,2471.428,13.29,0.022,352.2
2023-04-05T05:07:03,42.805,6.029,0.021,0.03,0.02,104.0,105.0,105.0,13.4,1505.2,317.5,-0.7,1.8,2471.452,13.29,0.036,35.0
2023-04-05T05:10:03,42.805,6.029,0.003,0.011,-0.035,106.0,104.0,104.0,13.4,1505.2,331.4,-0.8,1.8,2471.41,13.29,0.011,15.3
2023-04-05T05:13:03,42.805,6.029,-0.011,0.032,0.002,106.0,107.0,104.0,13.4,1505.2,320.3,-0.8,1.8,2471.42,13.29,0.033,341.0
2023-04-05T05:16:03,42.805,6.029,-0.028,0.026,-0.018,107.0,106.0,104.0,13.4,1505.2,324.7,-0.8,1.8,2471.411,13.29,0.038,312.9
2023-04-05T05:19:03,42.805,6.029,-0.01,0.049,0.001,105.0,105.0,103.0,13.4,1505.2,319.7,-0.7,1.8,2471.431,13.29,0.05,348.5
2023-04-05T05:22:03,42.805,6.029,-0.018,0.037,-0.003,105.0,105.0,103.0,13.4,1505.2,318.6,-0.8,1.8,2471.43,13.29,0.041,334.1
2023-04-05T05:25:03,42.805,6.029,0.017,0.017,-0.026,105.0,105.0,103.0,13.3,1505.2,332.9,-0.8,1.8,2471.417,13.29,0.024,45.0
2023-04-05T05:28:03,42.805,6.029,0.0,0.023,0.0,106.0,105.0,104.0,13.4,1505.2,333.9,-0.7,1.8,2471.384,13.29,0.023,0.0
2023-04-05T05:31:03,42.805,6.029,-0.008,0.027,-0.014,105.0,106.0,104.0,13.3,1505.2,327.4,-0.8,1.8,2471.406,13.29,0.028,343.5
2023-04-05T05:34:03,42.805,6.029,-0.01,0.035,0.0,106.0,105.0,103.0,13.4,1505.2,332.6,-0.8,1.9,2471.392,13.29,0.036,344.1
2023-04-05T05:37:03,42.805,6.029,-0.012,0.016,-0.01,107.0,105.0,104.0,13.4,1505.2,333.4,-0.8,1.8,2471.384,13.29,0.02,323.1
2023-04-05T05:40:03,42.805,6.029,0.001,0.024,-0.032,105.0,105.0,104.0,13.4,1505.2,344.0,-0.7,1.8,2471.443,13.29,0.024,2.4
2023-04-05T05:43:03,42.805,6.029,-0.006,0.042,-0.02,106.0,105.0,104.0,13.3,1505.2,343.3,-0.7,1.8,2471.384,13.29,0.042,351.9
2023-04-05T05:46:03,42.805,6.029,0.003,0.007,-0.023,106.0,105.0,104.0,13.4,1505.2,319.6,-0.8,1.8,2471.413,13.29,0.007,23.2
2023-04-05T05:49:03,42.805,6.029,0.0,0.015,-0.045,105.0,105.0,104.0,13.4,1505.2,331.6,-0.7,1.8,2471.411,13.29,0.015,0.0
2023-04-05T05:52:03,42.805,6.029,-0.026,0.024,-0.039,105.0,105.0,104.0,13.3,1505.2,331.0,-0.8,1.8,2471.407,13.29,0.035,312.7
2023-04-05T05:55:03,42.805,6.029,-0.024,0.037,-0.001,105.0,105.0,104.0,13.3,1505.2,322.5,-0.8,1.8,2471.412,13.29,0.044,327.0
2023-04-05T05:58:03,42.805,6.029,-0.005,0.041,-0.021,106.0,105.0,104.0,13.3,1505.2,343.9,-0.8,1.8,2471.374,13.29,0.041,353.0
2023-04-05T06:04:03,42.805,6.029,-0.001,0.02,0.009,106.0,107.0,104.0,13.4,1505.2,334.4,-0.8,1.8,2471.472,13.29,0.02,357.1
2023-04-05T06:07:03,42.805,6.029,-0.013,0.022,-0.038,107.0,105.0,104.0,13.3,1505.2,326.7,-0.8,1.8,2471.484,13.29,0.025,329.4
2023-04-05T06:10:03,42.805,6.029,-0.008,0.039,-0.021,108.0,106.0,103.0,13.4,1505.2,342.2,-0.8,1.8,2471.421,13.29,0.039,348.4
2023-04-05T06:13:03,42.805,6.029,-0.01,0.029,-0.033,105.0,106.0,103.0,13.3,1505.2,321.1,-0.8,1.8,2471.421,13.29,0.03,341.0
2023-04-05T06:16:03,42.805,6.029,-0.016,0.051,0.004,104.0,106.0,103.0,13.3,1505.2,327.0,-0.7,1.8,2471.48,13.29,0.053,342.6
2023-04-05T06:19:03,42.805,6.029,0.014,0.0,-0.022,105.0,104.0,104.0,13.3,1505.2,320.4,-0.8,1.8,2471.425,13.29,0.014,90.0
2023-04-05T06:22:03,42.805,6.029,-0.018,0.03,-0.008,106.0,105.0,103.0,13.4,1505.2,331.6,-0.8,1.8,2471.435,13.29,0.034,329.0
2023-04-05T06:25:03,42.805,6.029,0.01,0.022,0.011,105.0,105.0,103.0,13.4,1505.2,322.7,-0.8,1.8,2471.471,13.29,0.024,24.4
2023-04-05T06:28:03,42.805,6.029,-0.009,0.022,-0.02,106.0,106.0,103.0,13.4,1505.2,342.1,-0.8,1.8,2471.428,13.29,0.023,337.8
2023-04-05T06:31:03,42.805,6.029,-0.004,0.025,-0.029,106.0,106.0,104.0,13.4,1505.2,318.3,-0.8,1.8,2471.462,13.29,0.025,350.9
2023-04-05T06:34:03,42.805,6.029,-0.006,0.042,-0.005,106.0,106.0,103.0,13.4,1505.2,328.2,-0.7,1.8,2471.47,13.29,0.042,351.9
2023-04-05T06:37:03,42.805,6.029,-0.021,0.015,-0.017,108.0,106.0,102.0,13.3,1505.2,319.0,-0.8,1.8,2471.436,13.29,0.025,305.5
2023-04-05T06:40:03,42.805,6.029,0.009,0.042,0.004,107.0,107.0,103.0,13.4,1505.2,334.6,-0.7,1.8,2471.439,13.29,0.042,12.1
2023-04-05T06:43:03,42.805,6.029,-0.032,0.028,0.0,105.0,105.0,104.0,13.3,1505.2,318.7,-0.8,1.8,2471.46,13.29,0.042,311.2
2023-04-05T06:46:03,42.805,6.029,0.0,0.021,0.015,106.0,106.0,104.0,13.3,1505.2,339.4,-0.8,1.8,2471.457,13.29,0.021,0.0
2023-04-05T06:49:03,42.805,6.029,-0.02,0.03,-0.021,106.0,105.0,104.0,13.3,1505.2,320.3,-0.8,1.8,2471.438,13.29,0.036,326.3
2023-04-05T06:52:03,42.805,6.029,-0.014,0.041,0.002,106.0,106.0,104.0,13.4,1505.2,335.6,-0.7,1.9,2471.416,13.29,0.043,341.1
2023-04-05T06:55:03,42.805,6.029,-0.011,0.018,0.001,105.0,105.0,103.0,13.4,1505.2,323.1,-0.8,1.8,2471.411,13.29,0.021,328.6
2023-04-05T06:58:03,42.805,6.029,-0.01,0.037,-0.032,106.0,105.0,104.0,13.3,1505.2,324.4,-0.8,1.8,2471.44,13.29,0.038,344.9
2023-04-05T07:04:03,42.805,6.029,-0.011,0.027,-0.001,105.0,105.0,104.0,13.4,1505.2,338.0,-0.8,1.9,2471.475,13.29,0.029,337.8
2023-04-05T07:07:03,42.805,6.029,-0.001,0.016,-0.004,106.0,106.0,104.0,13.4,1505.2,333.0,-0.8,1.8,2471.458,13.29,0.016,356.4
2023-04-05T07:10:03,42.805,6.029,-0.008,0.01,0.008,106.0,105.0,103.0,13.4,1505.2,335.5,-0.8,1.8,2471.505,13.29,0.012,321.3
2023-04-05T07:13:03,42.805,6.029,0.0,0.031,-0.029,106.0,106.0,103.0,13.3,1505.2,329.8,-0.8,1.8,2471.462,13.29,0.03,0.0
2023-04-05T07:16:03,42.805,6.029,0.005,0.027,-0.009,105.0,105.0,103.0,13.4,1505.2,333.4,-0.7,1.8,2471.463,13.29,0.027,10.5
2023-04-05T07:19:03,42.805,6.029,0.005,0.024,-0.008,106.0,106.0,104.0,13.4,1505.2,334.8,-0.8,1.8,2471.43,13.29,0.024,11.8
2023-04-05T07:22:03,42.805,6.029,-0.009,0.019,-0.011,106.0,107.0,104.0,13.3,1505.2,324.7,-0.7,1.9,2471.448,13.29,0.021,334.7
2023-04-05T07:25:03,42.805,6.029,-0.009,0.026,-0.011,106.0,106.0,104.0,13.4,1505.2,324.9,-0.8,1.8,2471.428,13.29,0.027,340.9
2023-04-05T07:28:03,42.805,6.029,-0.02,0.022,-0.007,106.0,107.0,104.0,13.3,1505.2,323.6,-0.8,1.8,2471.455,13.29,0.029,317.7
2023-04-05T07:31:03,42.805,6.029,-0.006,0.025,-0.018,107.0,106.0,105.0,13.4,1505.2,336.1,-0.8,1.8,2471.416,13.29,0.025,346.5
2023-04-05T07:34:03,42.805,6.029,-0.007,0.034,0.031,104.0,108.0,103.0,13.4,1505.2,339.8,-0.8,1.8,2471.447,13.29,0.034,348.4
2023-04-05T07:37:03,42.805,6.029,-0.005,0.027,0.004,105.0,107.0,103.0,13.3,1505.2,325.5,-0.8,1.8,2471.4,13.29,0.027,349.5
2023-04-05T07:40:03,42.805,6.029,0.002,0.026,0.008,106.0,105.0,103.0,13.4,1505.2,334.6,-0.8,1.8,2471.433,13.29,0.026,4.4
2023-04-05T07:43:03,42.805,6.029,-0.02,0.026,-0.018,107.0,106.0,104.0,13.4,1505.2,326.3,-0.8,1.8,2471.424,13.29,0.032,322.4
2023-04-05T07:46:03,42.805,6.029,-0.018,0.034,-0.003,106.0,106.0,103.0,13.3,1505.2,326.5,-0.8,1.8,2471.443,13.29,0.038,332.1
2023-04-05T07:49:03,42.805,6.029,0.01,0.005,-0.055,106.0,106.0,103.0,13.3,1505.2,323.6,-0.7,1.8,2471.423,13.29,0.011,63.4
2023-04-05T07:52:03,42.805,6.029,-0.006,0.037,-0.014,106.0,106.0,103.0,13.3,1505.2,319.4,-0.8,1.8,2471.414,13.29,0.037,350.8
2023-04-05T07:55:03,42.805,6.029,0.023,0.034,-0.021,106.0,106.0,104.0,13.4,1505.2,340.9,-0.7,1.8,2471.424,13.29,0.041,34.1
2023-04-05T07:58:03,42.805,6.029,-0.009,0.031,0.024,107.0,106.0,104.0,13.4,1505.2,318.5,-0.8,1.8,2471.433,13.29,0.032,343.8
2023-04-05T08:04:03,42.805,6.029,-0.014,0.026,-0.003,107.0,106.0,103.0,13.4,1505.2,324.0,-0.8,1.8,2471.476,13.29,0.029,331.7
2023-04-05T08:07:03,42.805,6.029,-0.021,0.053,-0.005,106.0,106.0,104.0,13.4,1505.2,344.2,-0.8,1.8,2471.481,13.29,0.057,338.4
2023-04-05T08:10:03,42.805,6.029,-0.019,0.028,-0.018,106.0,106.0,103.0,13.4,1505.2,321.8,-0.7,1.8,2471.462,13.29,0.033,325.8
2023-04-05T08:13:03,42.805,6.029,-0.01,0.021,-0.002,106.0,106.0,104.0,13.4,1505.2,320.1,-0.8,1.8,2471.42,13.29,0.023,334.5
2023-04-05T08:16:03,42.805,6.029,-0.007,0.035,-0.005,106.0,106.0,103.0,13.4,1505.2,331.6,-0.7,1.8,2471.418,13.29,0.035,348.7
2023-04-05T08:19:03,42.805,6.029,-0.002,0.032,0.018,106.0,106.0,103.0,13.4,1505.2,337.4,-0.8,1.8,2471.476,13.29,0.032,356.4
2023-04-05T08:22:03,42.805,6.029,-0.016,0.022,-0.035,107.0,105.0,104.0,13.3,1505.2,337.3,-0.7,1.8,2471.437,13.29,0.027,324.0
2023-04-05T08:25:03,42.805,6.029,-0.018,0.043,-0.016,106.0,106.0,103.0,13.3,1505.2,327.9,-0.7,1.8,2471.393,13.29,0.046,337.3
2023-04-05T08:28:03,42.805,6.029,-0.02,0.03,-0.014,105.0,105.0,103.0,13.4,1505.2,326.5,-0.8,1.8,2471.416,13.29,0.036,326.3
2023-04-05T08:31:03,42.805,6.029,-0.036,0.026,0.007,106.0,106.0,103.0,13.4,1505.2,327.7,-0.8,1.8,2471.415,13.29,0.044,305.8
2023-04-05T08:34:03,42.805,6.029,-0.01,0.02,-0.031,106.0,105.0,103.0,13.3,1505.2,324.0,-0.8,1.8,2471.402,13.29,0.022,333.4
2023-04-05T08:37:03,42.805,6.029,-0.022,0.039,-0.017,105.0,105.0,103.0,13.4,1505.2,330.1,-0.8,1.8,2471.398,13.29,0.044,330.6
2023-04-05T08:40:03,42.805,6.029,-0.022,0.029,-0.01,105.0,106.0,103.0,13.3,1505.2,322.6,-0.8,1.8,2471.378,13.29,0.036,322.8
2023-04-05T08:43:03,42.805,6.029,-0.002,0.021,-0.019,105.0,106.0,103.0,13.4,1505.2,324.7,-0.7,1.8,2471.396,13.29,0.021,354.6
2023-04-05T08:46:03,42.805,6.029,-0.036,0.021,-0.03,109.0,107.0,104.0,13.4,1505.2,322.7,-0.8,1.8,2471.371,13.29,0.041,300.3
2023-04-05T08:49:03,42.805,6.029,0.001,0.039,-0.011,106.0,106.0,103.0,13.3,1505.2,328.4,-0.8,1.8,2471.391,13.29,0.039,1.5
2023-04-05T08:52:03,42.805,6.029,-0.039,0.021,-0.041,105.0,106.0,103.0,13.3,1505.2,326.8,-0.8,1.8,2471.403,13.29,0.044,298.3
2023-04-05T08:55:03,42.805,6.029,0.0,0.043,0.014,106.0,106.0,104.0,13.3,1505.2,334.6,-0.8,1.8,2471.424,13.29,0.043,0.0
2023-04-05T08:58:03,42.805,6.029,-0.009,0.04,0.019,107.0,107.0,104.0,13.4,1505.2,335.5,-0.7,1.8,2471.392,13.29,0.041,347.3
2023-04-05T09:04:03,42.805,6.029,0.0,0.034,-0.012,107.0,105.0,103.0,13.4,1505.2,337.3,-0.8,1.8,2471.46,13.29,0.034,0.0
2023-04-05T09:07:03,42.805,6.029,-0.021,0.037,-0.003,105.0,106.0,102.0,13.4,1505.2,324.5,-0.8,1.8,2471.425,13.29,0.042,330.4
2023-04-05T09:10:03,42.805,6.029,-0.012,0.026,-0.01,106.0,107.0,104.0,13.3,1505.2,338.4,-0.8,1.8,2471.428,13.29,0.028,335.2
2023-04-05T09:13:03,42.805,6.029,-0.014,0.023,-0.011,105.0,105.0,103.0,13.3,1505.2,341.2,-0.7,1.8,2471.392,13.29,0.026,328.7
2023-04-05T09:16:03,42.805,6.029,-0.024,0.031,-0.009,106.0,104.0,104.0,13.4,1505.2,338.5,-0.8,1.8,2471.379,13.29,0.039,322.3
2023-04-05T09:19:03,42.805,6.029,0.018,0.034,-0.01,106.0,105.0,103.0,13.3,1505.2,331.8,-0.7,1.8,2471.401,13.29,0.038,27.9
2023-04-05T09:22:03,42.805,6.029,-0.029,0.027,-0.021,106.0,105.0,104.0,13.4,1505.2,325.7,-0.7,1.8,2471.372,13.29,0.039,313.0
2023-04-05T09:25:03,42.805,6.029,-0.026,0.043,-0.006,105.0,106.0,103.0,13.4,1505.2,337.0,-0.7,1.8,2471.369,13.29,0.05,328.8
2023-04-05T09:28:03,42.805,6.029,0.003,0.032,-0.018,106.0,105.0,103.0,13.4,1505.2,323.4,-0.8,1.8,2471.373,13.29,0.032,5.4
2023-04-05T09:31:03,42.805,6.029,0.004,0.049,0.009,106.0,106.0,104.0,13.3,1505.2,341.9,-0.8,1.8,2471.377,13.29,0.049,4.7
2023-04-05T09:34:03,42.805,6.029,-0.009,0.047,-0.027,106.0,104.0,104.0,13.4,1505.2,341.8,-0.7,1.8,2471.302,13.29,0.047,349.2
2023-04-05T09:37:03,42.805,6.029,-0.011,0.026,-0.034,105.0,106.0,105.0,13.4,1505.2,333.9,-0.8,1.8,2471.342,13.29,0.028,337.1
2023-04-05T09:40:03,42.805,6.029,-0.024,0.038,0.009,106.0,106.0,104.0,13.4,1505.2,318.5,-0.7,1.8,2471.324,13.29,0.044,327.7
2023-04-05T09:43:03,42.805,6.029,-0.043,0.034,-0.038,106.0,106.0,103.0,13.4,1505.2,321.8,-0.8,1.8,2471.373,13.29,0.054,308.3
2023-04-05T09:46:03,42.805,6.029,-0.016,0.042,-0.031,105.0,106.0,103.0,13.3,1505.2,322.9,-0.8,1.8,2471.349,13.29,0.044,339.1
2023-04-05T09:49:03,42.805,6.029,0.0,0.043,-0.005,106.0,107.0,104.0,13.4,1505.2,343.4,-0.8,1.8,2471.343,13.29,0.043,0.0
2023-04-05T09:52:03,42.805,6.029,0.018,0.061,0.011,107.0,106.0,104.0,13.4,1505.2,344.2,-0.8,1.9,2471.357,13.29,0.063,16.4
2023-04-05T09:55:03,42.805,6.029,-0.011,0.029,-0.015,107.0,106.0,103.0,13.4,1505.2,343.1,-0.8,1.8,2471.298,13.29,0.031,339.2